| time (UTC) | temp C | wind direction | speed KPH | gust KPH | rain 1hr cm | rain 24hr cm | rain mn cm | humidity % | barometer mb |
| 20260506044601 | 5 | 36 | 6.4 | 17.7 | 0.00 | 0.00 | 0.00 | 85 | 1012.7 |
| 20260506043053 | 5 | 346 | 3.2 | 17.7 | 0.00 | 0.00 | 0.00 | 84 | 1012.8 |
| 20260506041556 | 5 | 19 | 3.2 | 16.1 | 0.00 | 0.00 | 0.00 | 84 | 1012.8 |
| 20260506040100 | 6 | 43 | 3.2 | 17.7 | 0.00 | 0.00 | 0.00 | 84 | 1012.7 |
| 20260506034553 | 6 | 45 | 6.4 | 20.9 | 0.00 | 0.00 | 0.00 | 83 | 1012.7 |
| 20260506033055 | 6 | 20 | 3.2 | 17.7 | 0.00 | 0.00 | 0.00 | 83 | 1012.8 |
| 20260506031600 | 6 | 10 | 4.8 | 14.5 | 0.00 | 0.00 | 0.00 | 83 | 1012.6 |
| 20260506030110 | 6 | 45 | 3.2 | 14.5 | 0.00 | 0.00 | 0.00 | 83 | 1012.7 |
| 20260506024556 | 6 | 23 | 4.8 | 16.1 | 0.00 | 0.00 | 0.00 | 83 | 1012.8 |
| 20260506023056 | 6 | 18 | 3.2 | 16.1 | 0.00 | 0.00 | 0.00 | 83 | 1012.9 |
| 20260506021603 | 6 | 49 | 3.2 | 17.7 | 0.00 | 0.00 | 0.00 | 82 | 1012.9 |
| 20260506020057 | 6 | 5 | 4.8 | 16.1 | 0.00 | 0.00 | 0.00 | 82 | 1013.0 |
| 20260506014559 | 6 | 26 | 4.8 | 14.5 | 0.00 | 0.00 | 0.00 | 82 | 1013.1 |
| 20260506013054 | 7 | 11 | 4.8 | 14.5 | 0.00 | 0.00 | 0.00 | 82 | 1013.1 |
| 20260506011558 | 7 | 17 | 3.2 | 20.9 | 0.00 | 0.00 | 0.00 | 82 | 1013.2 |
| 20260506010059 | 7 | 347 | 3.2 | 22.5 | 0.00 | 0.00 | 0.00 | 82 | 1013.1 |
| 20260506004627 | 7 | 0 | 6.4 | 17.7 | 0.00 | 0.00 | 0.00 | 82 | 1013.2 |
| 20260506003057 | 7 | 30 | 1.6 | 16.1 | 0.00 | 0.00 | 0.00 | 82 | 1013.3 |
| 20260506001600 | 7 | 15 | 3.2 | 16.1 | 0.00 | 0.00 | 0.00 | 81 | 1013.5 |
| 20260506000100 | 8 | 53 | 3.2 | 12.9 | 0.00 | 0.00 | 0.00 | 80 | 1013.3 |
| 20260505234617 | 8 | 40 | 3.2 | 17.7 | 0.00 | 0.00 | 0.00 | 81 | 1013.5 |
| 20260505233058 | 8 | 22 | 1.6 | 19.3 | 0.00 | 0.00 | 0.00 | 83 | 1013.5 |
| 20260505231554 | 8 | 33 | 3.2 | 16.1 | 0.00 | 0.00 | 0.00 | 83 | 1013.7 |
| 20260505230100 | 8 | 125 | 3.2 | 14.5 | 0.00 | 0.00 | 0.00 | 83 | 1013.7 |
| 20260505224557 | 8 | 49 | 1.6 | 17.7 | 0.00 | 0.00 | 0.00 | 82 | 1013.5 |
| 20260505223103 | 8 | 0 | 1.6 | 16.1 | 0.00 | 0.00 | 0.00 | 82 | 1013.6 |
| 20260505221606 | 8 | 86 | 1.6 | 16.1 | 0.00 | 0.00 | 0.00 | 81 | 1013.6 |
| 20260505220138 | 8 | 11 | 4.8 | 14.5 | 0.00 | 0.00 | 0.00 | 81 | 1013.7 |
| 20260505214615 | 8 | 22 | 1.6 | 9.7 | 0.00 | 0.00 | 0.00 | 80 | 1013.7 |
| 20260505213054 | 8 | 15 | 1.6 | 8.0 | 0.00 | 0.00 | 0.00 | 79 | 1013.6 |
| 20260505211611 | 8 | 25 | 4.8 | 12.9 | 0.00 | 0.00 | 0.00 | 79 | 1013.6 |
| 20260505210055 | 9 | 34 | 3.2 | 11.3 | 0.00 | 0.00 | 0.00 | 79 | 1013.5 |
| 20260505204558 | 9 | 26 | 4.8 | 19.3 | 0.00 | 0.00 | 0.00 | 79 | 1013.5 |
| 20260505203054 | 9 | 40 | 4.8 | 22.5 | 0.00 | 0.00 | 0.00 | 78 | 1013.4 |
| 20260505201607 | 10 | 25 | 4.8 | 17.7 | 0.00 | 0.00 | 0.00 | 77 | 1013.3 |
| 20260505194602 | 10 | 30 | 3.2 | 16.1 | 0.00 | 0.00 | 0.00 | 74 | 1012.7 |
| 20260505193056 | 11 | 19 | 1.6 | 16.1 | 0.00 | 0.00 | 0.00 | 73 | 1012.5 |
| 20260505191555 | 11 | 35 | 1.6 | 16.1 | 0.00 | 0.00 | 0.00 | 72 | 1012.3 |
| 20260505190100 | 11 | 21 | 1.6 | 19.3 | 0.00 | 0.00 | 0.00 | 71 | 1012.1 |
| 20260505184557 | 11 | 33 | 6.4 | 20.9 | 0.00 | 0.00 | 0.00 | 71 | 1012.0 |
| 20260505183055 | 11 | 34 | 4.8 | 22.5 | 0.00 | 0.00 | 0.00 | 71 | 1011.9 |
| 20260505181554 | 11 | 25 | 4.8 | 14.5 | 0.00 | 0.00 | 0.00 | 72 | 1011.7 |
| 20260505174558 | 12 | 58 | 4.8 | 16.1 | 0.00 | 0.00 | 0.00 | 72 | 1011.8 |
| 20260505173056 | 12 | 28 | 4.8 | 17.7 | 0.00 | 0.00 | 0.00 | 73 | 1011.8 |
| 20260505171600 | 12 | 28 | 3.2 | 14.5 | 0.00 | 0.00 | 0.00 | 72 | 1011.7 |
| 20260505170100 | 13 | 9 | 3.2 | 12.9 | 0.00 | 0.00 | 0.00 | 71 | 1011.9 |
| 20260505164630 | 13 | 0 | 0.0 | 8.0 | 0.00 | 0.00 | 0.00 | 68 | 1011.9 |
| 20260505163053 | 13 | 23 | 1.6 | 12.9 | 0.00 | 0.00 | 0.00 | 67 | 1011.8 |
| 20260505161559 | 13 | 0 | 1.6 | 6.4 | 0.00 | 0.00 | 0.00 | 67 | 1011.9 |
| 20260505160108 | 13 | 0 | 1.6 | 12.9 | 0.00 | 0.00 | 0.00 | 67 | 1011.9 |
| 20260505153057 | 13 | 0 | 0.0 | 12.9 | 0.00 | 0.00 | 0.00 | 66 | 1012.0 |
| 20260505151611 | 14 | 20 | 1.6 | 16.1 | 0.00 | 0.00 | 0.00 | 65 | 1012.1 |
| 20260505140124 | 15 | 0 | 1.6 | 8.0 | 0.00 | 0.00 | 0.00 | 64 | 1012.2 |
| 20260505124604 | 15 | 93 | 0.0 | 4.8 | 0.00 | 0.00 | 0.00 | 64 | 1012.4 |
| 20260505123057 | 15 | 0 | 4.8 | 14.5 | 0.00 | 0.00 | 0.00 | 63 | 1012.5 |
| 20260505121600 | 14 | 0 | 1.6 | 16.1 | 0.00 | 0.00 | 0.00 | 65 | 1012.6 |
| 20260505120113 | 14 | 309 | 1.6 | 8.0 | 0.00 | 0.00 | 0.00 | 65 | 1012.5 |
| 20260505114557 | 13 | 26 | 3.2 | 14.5 | 0.00 | 0.00 | 0.00 | 68 | 1012.7 |
| 20260505113057 | 13 | 0 | 1.6 | 9.7 | 0.00 | 0.00 | 0.00 | 69 | 1012.8 |
| 20260505111554 | 13 | 13 | 3.2 | 12.9 | 0.00 | 0.00 | 0.00 | 71 | 1012.9 |
| 20260505110106 | 13 | 329 | 1.6 | 8.0 | 0.00 | 0.00 | 0.00 | 73 | 1013.1 |
| 20260505101556 | 12 | 27 | 3.2 | 11.3 | 0.00 | 0.00 | 0.00 | 76 | 1013.2 |
| 20260505100053 | 12 | 5 | 1.6 | 12.9 | 0.00 | 0.00 | 0.00 | 78 | 1013.2 |
| 20260505094553 | 12 | 53 | 3.2 | 14.5 | 0.00 | 0.00 | 0.00 | 76 | 1013.3 |
| 20260505093051 | 12 | 0 | 0.0 | 6.4 | 0.00 | 0.00 | 0.00 | 76 | 1013.4 |
| 20260505091605 | 12 | 16 | 1.6 | 11.3 | 0.00 | 0.00 | 0.00 | 78 | 1013.5 |
| 20260505090055 | 12 | 24 | 1.6 | 11.3 | 0.00 | 0.00 | 0.00 | 80 | 1013.3 |
| 20260505084555 | 11 | 5 | 1.6 | 6.4 | 0.00 | 0.00 | 0.00 | 82 | 1013.5 |
| 20260505083053 | 11 | 14 | 1.6 | 12.9 | 0.00 | 0.00 | 0.00 | 83 | 1013.5 |
| 20260505081555 | 11 | 86 | 0.0 | 8.0 | 0.00 | 0.00 | 0.00 | 84 | 1013.5 |
| 20260505080104 | 10 | 10 | 3.2 | 8.0 | 0.00 | 0.00 | 0.00 | 87 | 1013.6 |
| 20260505074552 | 10 | 0 | 0.0 | 12.9 | 0.00 | 0.00 | 0.00 | 89 | 1013.5 |
| 20260505073055 | 10 | 5 | 0.0 | 14.5 | 0.00 | 0.00 | 0.00 | 90 | 1013.6 |
| 20260505071555 | 10 | 0 | 0.0 | 6.4 | 0.00 | 0.00 | 0.00 | 91 | 1013.5 |
| 20260505070057 | 9 | 0 | 0.0 | 4.8 | 0.00 | 0.00 | 0.00 | 91 | 1013.4 |
| 20260505064554 | 8 | 0 | 1.6 | 8.0 | 0.00 | 0.00 | 0.00 | 91 | 1013.4 |
| 20260505063112 | 8 | 0 | 0.0 | 4.8 | 0.00 | 0.00 | 0.00 | 91 | 1013.6 |
| 20260505061601 | 8 | 0 | 0.0 | 1.6 | 0.00 | 0.00 | 0.00 | 91 | 1013.6 |
| 20260505060056 | 8 | 0 | 0.0 | 3.2 | 0.00 | 0.00 | 0.00 | 91 | 1013.6 |
| 20260505054609 | 8 | 0 | 0.0 | 1.6 | 0.00 | 0.00 | 0.00 | 91 | 1013.7 |
| 20260505053101 | 8 | 0 | 0.0 | 0.0 | 0.00 | 0.00 | 0.00 | 90 | 1013.8 |
| 20260505051554 | 8 | 0 | 0.0 | 0.0 | 0.00 | 0.00 | 0.00 | 90 | 1013.8 |